FW3080 Weather Reports


Display with metric or nautical units.
time (UTC)temp
F
wind
direction
speed
MPH
gust
MPH
rain 1hr
in
rain 24hr
in
rain mn
in
humidity
%
barometer
mb
20260906160044 74 189 3.0 8.0 0.00 0.00 0.00 66 1020.5
20260906154538 73 76 2.0 8.0 0.00 0.00 0.00 68 1020.4
20260906153044 73 113 3.0 7.0 0.00 0.00 0.00 70 1020.5
20260906151545 72 175 3.0 7.0 0.00 0.00 0.00 71 1020.5
20260906150035 72 87 2.0 7.0 0.00 0.00 0.00 71 1020.4
20260906144531 71 92 3.0 8.0 0.00 0.00 0.00 73 1020.2
20260906143036 71 99 3.0 6.0 0.00 0.00 0.00 74 1020.4
20260906141523 70 101 2.0 4.0 0.00 0.00 0.00 78 1020.3
20260906140025 68 90 2.0 6.0 0.00 0.00 0.00 81 1020.4
20260906134519 66 88 2.0 4.0 0.00 0.00 0.00 83 1020.4
20260906133024 65 59 1.0 3.0 0.00 0.00 0.00 84 1020.3
20260906131517 64 59 1.0 4.0 0.00 0.00 0.00 84 1020.3
20260906130007 62 68 1.0 4.0 0.00 0.00 0.00 84 1020.0
20260906124504 62 42 0.0 2.0 0.00 0.00 0.00 84 1020.0
20260906123102 61 42 1.0 3.0 0.00 0.00 0.00 84 1019.9
20260906121556 60 34 2.0 4.0 0.00 0.00 0.00 84 1019.7
20260906120058 59 28 1.0 3.0 0.00 0.00 0.00 84 1019.7
20260906114553 58 28 0.0 1.0 0.00 0.00 0.00 84 1019.5
20260906113051 58 28 0.0 1.0 0.00 0.00 0.00 83 1019.1
20260906111551 58 28 1.0 2.0 0.00 0.00 0.00 83 1019.0
20260906110054 59 32 0.0 2.0 0.00 0.00 0.00 83 1018.7
20260906104551 59 32 1.0 3.0 0.00 0.00 0.00 84 1018.8
20260906103102 59 28 0.0 2.0 0.00 0.00 0.00 83 1018.8
20260906101548 59 28 1.0 3.0 0.00 0.00 0.00 83 1018.8
20260906100047 59 28 0.0 3.0 0.00 0.00 0.00 83 1019.0
20260906094547 59 28 0.0 1.0 0.00 0.00 0.00 83 1018.9
20260906093050 59 28 0.0 1.0 0.00 0.00 0.00 83 1018.6
20260906091545 60 27 2.0 4.0 0.00 0.00 0.00 83 1018.5
20260906090058 60 43 1.0 2.0 0.00 0.00 0.00 83 1018.4
20260906084544 60 43 0.0 3.0 0.00 0.00 0.00 83 1018.5
20260906083043 60 43 0.0 2.0 0.00 0.00 0.00 84 1018.5
20260906081542 59 43 1.0 4.0 0.00 0.00 0.00 84 1018.3
20260906080041 60 63 1.0 3.0 0.00 0.00 0.00 84 1018.3
20260906074541 59 71 0.0 2.0 0.00 0.00 0.00 84 1018.4
20260906073056 59 71 0.0 0.0 0.00 0.00 0.00 84 1018.6
20260906071539 59 71 0.0 2.0 0.00 0.00 0.00 84 1018.5
20260906070041 58 71 0.0 2.0 0.00 0.00 0.00 84 1018.4
20260906064537 58 71 0.0 0.0 0.00 0.00 0.00 83 1018.3
20260906063045 59 71 0.0 0.0 0.00 0.00 0.00 83 1018.2
20260906061534 59 71 0.0 0.0 0.00 0.00 0.00 83 1018.1
20260906060032 59 71 0.0 0.0 0.00 0.00 0.00 83 1018.1
20260906054535 59 71 1.0 2.0 0.00 0.00 0.00 83 1018.1
20260906053030 59 71 0.0 1.0 0.00 0.00 0.00 83 1017.8
20260906051548 59 71 0.0 1.0 0.00 0.00 0.00 83 1017.7
20260906050025 59 71 0.0 0.0 0.00 0.00 0.00 83 1017.5
20260906044524 60 71 0.0 0.0 0.00 0.00 0.00 83 1017.5
20260906043023 60 71 0.0 0.0 0.00 0.00 0.00 82 1017.4
20260906041521 60 71 0.0 0.0 0.00 0.00 0.00 82 1017.3
20260906040031 61 71 0.0 0.0 0.00 0.00 0.00 82 1017.3
20260906034521 61 71 0.0 0.0 0.00 0.00 0.00 81 1017.3
20260906033017 62 71 0.0 1.0 0.00 0.00 0.00 81 1017.1
20260906031515 62 71 0.0 2.0 0.00 0.00 0.00 80 1017.0
20260906030014 63 71 0.0 0.0 0.00 0.00 0.00 80 1017.1
20260906024510 63 71 0.0 0.0 0.00 0.02 0.00 79 1017.0
20260906023008 64 71 0.0 0.0 0.00 0.02 0.00 78 1017.0
20260906021506 64 71 0.0 0.0 0.00 0.02 0.00 77 1017.0
20260906020004 65 71 0.0 2.0 0.00 0.02 0.00 77 1016.8
20260906014501 66 71 0.0 1.0 0.00 0.02 0.00 76 1016.8
20260906013106 66 71 0.0 3.0 0.00 0.02 0.00 76 1016.7
20260906011556 67 32 1.0 2.0 0.00 0.02 0.00 75 1016.6
20260906010055 68 28 0.0 2.0 0.00 0.02 0.00 74 1016.5
20260906004555 69 28 0.0 0.0 0.00 0.02 0.00 72 1016.5
20260906003053 70 28 0.0 1.0 0.00 0.02 0.00 71 1016.3
20260906001553 71 28 0.0 1.0 0.00 0.02 0.00 69 1016.3
20260906000104 72 29 0.0 3.0 0.00 0.02 0.00 67 1016.3
20260905234606 73 31 0.0 3.0 0.00 0.02 0.00 67 1016.2
20260905233050 74 41 0.0 4.0 0.00 0.02 0.00 67 1016.4
20260905231550 74 41 0.0 4.0 0.00 0.02 0.00 66 1016.5
20260905230051 74 53 4.0 9.0 0.00 0.02 0.00 65 1016.5
20260905224551 74 81 5.0 11.0 0.00 0.02 0.00 65 1016.1
20260905223050 75 9 5.0 12.0 0.00 0.02 0.00 66 1016.0
20260905221543 74 62 5.0 9.0 0.00 0.02 0.00 67 1016.1
20260905220040 73 25 1.0 6.0 0.00 0.02 0.00 71 1016.0
20260905214540 73 55 3.0 6.0 0.00 0.02 0.00 72 1016.0
20260905213041 73 75 2.0 7.0 0.00 0.02 0.00 73 1016.2
20260905211540 73 77 0.0 4.0 0.00 0.02 0.00 74 1016.1
20260905210052 73 44 2.0 4.0 0.00 0.02 0.00 74 1016.2
20260905204537 73 20 2.0 4.0 0.00 0.02 0.00 73 1016.1
20260905203051 74 337 2.0 4.0 0.00 0.02 0.00 73 1015.9
20260905201537 74 355 2.0 6.0 0.00 0.02 0.00 73 1016.1
20260905200034 73 27 6.0 11.0 0.00 0.02 0.00 74 1016.1
20260905194533 73 26 3.0 9.0 0.00 0.02 0.00 75 1016.1
20260905193035 73 38 3.0 10.0 0.00 0.02 0.00 75 1016.1
20260905191537 73 31 5.0 9.0 0.00 0.02 0.00 74 1016.1
20260905190033 73 79 3.0 8.0 0.00 0.02 0.00 75 1016.1
20260905184530 73 26 4.0 9.0 0.00 0.02 0.00 75 1016.2
20260905183028 73 14 4.0 9.0 0.00 0.02 0.00 76 1016.2
20260905181528 73 5 4.0 9.0 0.00 0.02 0.00 76 1016.3
20260905180025 72 42 4.0 8.0 0.00 0.02 0.00 77 1016.2
20260905174525 72 27 3.0 8.0 0.00 0.02 0.00 77 1016.1
20260905173024 72 33 3.0 9.0 0.00 0.02 0.00 77 1016.2
20260905171529 72 360 2.0 9.0 0.00 0.02 0.00 78 1016.2
20260905170025 72 24 3.0 8.0 0.00 0.02 0.00 77 1016.3
20260905164519 71 59 2.0 8.0 0.00 0.02 0.00 78 1016.5
20260905163021 71 61 2.0 6.0 0.00 0.02 0.00 79 1016.4
20260905161516 71 40 2.0 9.0 0.00 0.02 0.00 80 1016.3